Weather History for Richmond Hanover County, VA

Change the Weather History Date:

Thursday, May 24, 2012

  Actual Average Record
Temperature  
Mean Temperature 67 °F -  
Max Temperature 80 °F 78 °F 90 °F (1957)
Min Temperature 55 °F 55 °F 39 °F (1963)
Cooling Degree Days 2    
Growing Degree Days 17 (Base 50)    
Moisture  
Dew Point 62 °F    
Average Humidity 90    
Maximum Humidity 100    
Minimum Humidity 64    
Precipitation  
Precipitation 0.00 in - - ()
Sea Level Pressure  
Sea Level Pressure 30.04 in    
Wind  
Wind Speed 1 mph (SE)    
Max Wind Speed 7 mph    
Max Gust Speed -    
Visibility 5 miles    
Events Fog    
Averages and records for this station are not official NWS values.
T = Trace of Precipitation, MM = Missing Value Source: NWS Daily Summary

Daily Weather History Graph

Daily Weather History Graph

Search for Another Location

Airport:

Trip Planner

Search our weather history database for the weather conditions in past years. The results will help you decide how hot, cold, wet, or windy it might be!

Date:

Astronomy

May. 24, 2012 Rise Set
Actual Time 5:53 AM EDT 8:20 PM EDT
Civil Twilight 5:23 AM EDT 8:50 PM EDT
Nautical Twilight 4:45 AM EDT 9:27 PM EDT
Astronomical Twilight 4:04 AM EDT 10:09 PM EDT
Moon 8:50 AM EDT 11:20 PM EDT
Length of Visible Light 15h 27m
Length of Day
14h 27m
Waxing Crescent, 12% of the Moon is Illuminated
May 24
Waxing Crescent
May 28
First Quarter
Jun 4
Full
Jun 11
Last Quarter
Jun 19
New

Hourly Weather History & Observations

Time (EDT) Temp. Dew Point Humidity Pressure Visibility Wind Dir Wind Speed Gust Speed Precip Events Conditions
12:54 AM 63.0 °F 61.0 °F 93% 29.98 in 10.0 mi SW 4.6 mph - N/A   Clear
1:16 AM 62.6 °F 60.8 °F 94% 29.98 in 1.5 mi Calm Calm - N/A   Partly Cloudy
1:23 AM 62.6 °F 60.8 °F 94% 29.98 in 0.8 mi Calm Calm - N/A   Mist
1:54 AM 61.0 °F 60.1 °F 97% 29.97 in 0.5 mi Calm Calm - N/A Fog Fog
2:54 AM 59.0 °F 59.0 °F 100% 29.99 in 0.8 mi Calm Calm - N/A   Mist
3:05 AM 59.0 °F 59.0 °F 100% 30.00 in 1.2 mi Calm Calm - N/A   Partly Cloudy
3:10 AM 59.0 °F 59.0 °F 100% 30.00 in 0.8 mi Calm Calm - N/A   Mist
3:22 AM 59.0 °F 57.2 °F 94% 30.00 in 1.2 mi Calm Calm - N/A   Scattered Clouds
3:29 AM 57.2 °F 57.2 °F 100% 30.00 in 0.8 mi Calm Calm - N/A   Mist
3:54 AM 57.0 °F 57.0 °F 100% 30.01 in 0.5 mi Calm Calm - N/A Fog Fog
4:54 AM 57.0 °F 57.0 °F 100% 30.02 in 0.8 mi Calm Calm - N/A   Mist
5:11 AM 55.4 °F 55.4 °F 100% 30.02 in 1.2 mi Calm Calm - N/A   Partly Cloudy
5:22 AM 57.2 °F 57.2 °F 100% 30.03 in 2.0 mi Calm Calm - N/A   Partly Cloudy
5:29 AM 57.2 °F 55.4 °F 94% 30.03 in 5.0 mi Calm Calm - N/A   Clear
5:40 AM 57.2 °F 55.4 °F 94% 30.03 in 1.8 mi Calm Calm - N/A   Clear
5:54 AM 57.0 °F 55.9 °F 96% 30.03 in 1.8 mi Calm Calm - N/A   Clear
6:13 AM 57.2 °F 57.2 °F 100% 30.04 in 0.8 mi Calm Calm - N/A   Clear
6:23 AM 57.2 °F 57.2 °F 100% 30.04 in 1.8 mi Calm Calm - N/A   Clear
6:25 AM 57.2 °F 57.2 °F 100% 30.04 in 3.0 mi Calm Calm - N/A   Clear
6:54 AM 60.1 °F 59.0 °F 96% 30.05 in 6.0 mi Calm Calm - N/A   Clear
7:54 AM 64.9 °F 62.1 °F 90% 30.06 in 7.0 mi Calm Calm - N/A   Clear
8:54 AM 68.0 °F 63.0 °F 84% 30.08 in 9.0 mi Calm Calm - N/A   Partly Cloudy
9:54 AM 70.0 °F 64.0 °F 81% 30.09 in 10.0 mi Calm Calm - N/A   Mostly Cloudy
10:54 AM 73.9 °F 66.0 °F 76% 30.09 in 10.0 mi Calm Calm - N/A   Clear
11:54 AM 75.9 °F 66.9 °F 74% 30.09 in 9.0 mi Variable 3.5 mph - N/A   Mostly Cloudy
12:54 PM 78.1 °F 66.9 °F 68% 30.08 in 9.0 mi Variable 6.9 mph - N/A   Mostly Cloudy
1:54 PM 79.0 °F 66.0 °F 64% 30.07 in 9.0 mi ENE 3.5 mph - N/A   Scattered Clouds
2:54 PM 78.1 °F 66.9 °F 68% 30.07 in 9.0 mi ESE 3.5 mph - N/A   Mostly Cloudy
3:54 PM 77.0 °F 68.0 °F 74% 30.06 in 10.0 mi SE 3.5 mph - N/A   Partly Cloudy
4:54 PM 73.0 °F 64.9 °F 76% 30.06 in 10.0 mi SSE 3.5 mph - N/A   Scattered Clouds
5:54 PM 73.9 °F 68.0 °F 82% 30.04 in 10.0 mi SE 3.5 mph - N/A   Clear
6:54 PM 75.0 °F 68.0 °F 79% 30.04 in 10.0 mi Variable 5.8 mph - N/A   Mostly Cloudy
7:54 PM 73.0 °F 68.0 °F 84% 30.06 in 10.0 mi ESE 3.5 mph - N/A   Overcast
8:54 PM 72.0 °F 69.1 °F 91% 30.06 in 9.0 mi Calm Calm - N/A   Overcast
9:54 PM 71.1 °F 68.0 °F 90% 30.08 in 10.0 mi Calm Calm - N/A   Overcast
10:54 PM 69.1 °F 66.9 °F 93% 30.08 in 9.0 mi Calm Calm - N/A   Scattered Clouds
11:52 PM 66.2 °F 66.2 °F 100% 30.08 in 1.8 mi Calm Calm - N/A   Clear
11:54 PM 66.9 °F 66.0 °F 97% 30.08 in 1.0 mi Calm Calm - N/A   Mist